Home > Weather > Chinle > Past weeks

Flag for USA Past Weather in Chinle, Arizona, USA — Yesterday and Last 2 Weeks

Now
46 °F

Clear.


Feels Like: 46 °F
Forecast: 45 / 82 °F
Wind: No wind

Location: Window Rock Airport

Current Time: May 29, 2016 at 3:38:19 AM

Latest Report: May 29, 2016 at 2:53 AM


Visibility: 10 mi

Pressure: 29.88 "Hg (24.36 "Hg at 1678m altitude)

Humidity: 46%

Dew Point: 26 °F

Location of ChinleLocation

Past Weather in Chinle — Graph

°F

Chinle Temperature Yesterday

Maximum temperature yesterday: 75 °F (at 3:53 PM)
Minimum temperature yesterday: 33 °F (at 5:53 AM)
Average temperature yesterday: 58 °F

High & Low Weather Summary for the Past Weeks

 TemperatureHumidityPressure
High80 °F (May 14, 3:53 PM)93% (May 19, 1:53 AM)29.99 "Hg (May 19, 1:53 AM)
Low33 °F (May 19, 5:53 AM)10% (May 15, 6:53 PM)29.58 "Hg (May 15, 2:53 PM)
Average56 °F39%29.80 "Hg
* Reported May 14 1:53 AM — May 29 1:53 AM, Chinle, Weather by CustomWeather, © 2016

Note: Actual official high and low records may vary slightly from our data, if they occured in-between our weather recording intervals... More about our weather records

Advertising

Chinle Weather History for the Previous 24 Hours

Scroll right to see more
 ConditionsComfort  
Time TempWeatherWind HumidityBarometerVisibility
1:53 AM
Sun, May 29
46 °FClear.No wind48%29.89 "Hg10 mi
12:53 AM50 °FClear.No wind41%29.86 "Hg10 mi
11:53 PM
Sat, May 28
57 °FClear.No wind34%29.84 "Hg10 mi
10:53 PM64 °FClear.10 mph25%29.81 "Hg10 mi
9:53 PM64 °FOvercast.8 mph20%29.83 "Hg10 mi
8:53 PM62 °FSunny.7 mph22%29.83 "Hg10 mi
7:53 PM70 °FSunny.3 mph16%29.81 "Hg10 mi
6:53 PM74 °FSunny.5 mph14%29.82 "Hg10 mi
5:53 PM73 °FPassing clouds.9 mph14%29.85 "Hg10 mi
4:53 PM72 °FPassing clouds.5 mph14%29.85 "Hg10 mi
3:53 PM75 °FScattered clouds.7 mph12%29.83 "Hg10 mi
2:53 PM74 °FPassing clouds.5 mph14%29.85 "Hg10 mi
1:53 PM71 °FScattered clouds.N/A16%29.85 "Hg10 mi
12:53 PM72 °FPartly sunny.9 mph17%29.84 "Hg10 mi
11:53 AM69 °FScattered clouds.No wind19%29.84 "Hg10 mi
10:53 AM70 °FOvercast.3 mph18%29.84 "Hg10 mi
9:53 AM64 °FSunny.3 mph26%29.85 "Hg10 mi
8:53 AM56 °FSunny.No wind33%29.88 "Hg10 mi
7:53 AM46 °FSunny.No wind44%29.88 "Hg10 mi
6:53 AM37 °FClear.3 mph57%29.91 "Hg10 mi
5:53 AM33 °FClear.5 mph61%29.90 "Hg10 mi
4:53 AM35 °FClear.No wind59%29.87 "Hg10 mi
3:53 AM37 °FClear.No wind52%29.86 "Hg10 mi
Weather by CustomWeather, © 2016

See weather overviewHow to use our weather pages